{"data":{"norad_id":56360,"intl_designator":"2023-058AV","name":"STARLINK-5549","alt_names":[],"object_type":"PAYLOAD","status":"ACTIVE","operator":null,"country":"US","launch_date":"2023-04-27","launch_site_code":"AFWTR","launch_vehicle":null,"mission":null,"orbit_class":"UNKNOWN","rcs_meters":null,"size_class":null,"mass_kg":null,"dimensions":null,"purposes":["comms"],"wikipedia_slug":null,"has_3d_model":false,"image_url":null,"decayed_at":null,"tle_current":{"epoch":"2026-05-24T22:59:39.689664Z","epoch_age_seconds":74678,"freshness":"FRESH","line1":"1 56360U 23058AV  26144.95809826  .00001086  00000+0  79307-4 0  9996","line2":"2 56360  97.4508 146.0443 0001579  76.1869 283.9534 15.05654714169677","mean_motion":15.05654714,"eccentricity":0.0001579,"inclination_deg":97.4508,"raan_deg":146.0443,"arg_perigee_deg":76.1869,"mean_anomaly_deg":283.9534,"bstar":7.9307e-5,"rev_number":16967,"period_min":95.639457480555,"perigee_km":548.40282098885,"apogee_km":550.59056770953,"semimajor_km":6927.6336943492,"source":"CELESTRAK","updated_at":"2026-05-25T13:38:18.009482Z"}}}